Kearney, NE

9:47 PM CDT on April 25, 2017 (GMT -0500)
Kearney Municipal

Weather History for KEAR - April, 2014

Change the Weather History Date:

Monday, April 28, 2014

  Actual Average Record
Temperature  
Mean Temperature 42 °F 53 °F  
Max Temperature 48 °F 66 °F 100 °F (1910)
Min Temperature 36 °F 40 °F 22 °F (1918)
Degree Days  
Heating Degree Days 23 12  
Month to date heating degree days 386 473  
Cooling Degree Days 0 1  
Month to date cooling degree days 1  
Moisture  
Dew Point 37 °F    
Average Humidity 85    
Maximum Humidity 93    
Minimum Humidity 76    
Precipitation  
Precipitation 0.15 in - 1.60 in (1982)
Sea Level Pressure  
Sea Level Pressure 29.35 in    
Wind  
Wind Speed 24 mph (NW)    
Max Wind Speed 35 mph    
Max Gust Speed 51 mph    
Visibility 8 miles    
Events      
T = Trace of Precipitation, MM = Missing Value Source: NWS Daily Summary

Daily Weather History Graph

Daily Weather History Graph

Search for Another Location

Airport or City:

Trip Planner

Search our weather history database for the weather conditions in past years. The results will help you decide how hot, cold, wet, or windy it might be!

Date:

Astronomy

Apr. 28, 2014 Rise Set
Actual Time 6:38 AM CDT 8:29 PM CDT
Civil Twilight 6:09 AM CDT 8:58 PM CDT
Nautical Twilight 5:33 AM CDT 9:34 PM CDT
Astronomical Twilight 4:54 AM CDT 10:13 PM CDT
Moon 6:17 AM CDT (4/28) 8:08 PM CDT (4/28)
Length of Visible Light 14h 49m
Length of Day
13h 50m
Waning Crescent, 0% of the Moon is Illuminated
Apr 28
Waning Crescent
Apr 29
New
May 6
First Quarter
May 14
Full
May 21
Last Quarter

Hourly Weather History & Observations

Time (CDT) Temp. Windchill Dew Point Humidity Pressure Visibility Wind Dir Wind Speed Gust Speed Precip Events Conditions
12:15 AM 48.2 °F - 42.8 °F 82% 29.24 in 10.0 mi West 20.7 mph - N/A   Overcast
12:35 AM 48.2 °F - 42.8 °F 82% 29.26 in 10.0 mi West 21.9 mph 29.9 mph N/A   Overcast
12:55 AM 48.2 °F - 42.8 °F 82% 29.28 in 10.0 mi West 21.9 mph 26.5 mph N/A   Overcast
1:15 AM 46.4 °F 38.3 °F 42.8 °F 87% 29.26 in 10.0 mi WNW 23.0 mph 26.5 mph 0.01 in   Overcast
1:35 AM 44.6 °F 35.5 °F 39.2 °F 81% 29.26 in 8.0 mi NW 25.3 mph 29.9 mph 0.03 in   Overcast
1:55 AM 42.8 °F 33.3 °F 39.2 °F 87% 29.25 in 10.0 mi WNW 24.2 mph 29.9 mph 0.03 in   Overcast
2:15 AM 42.8 °F 34.3 °F 39.2 °F 87% 29.25 in 10.0 mi WNW 19.6 mph 27.6 mph N/A   Mostly Cloudy
2:35 AM 42.8 °F 34.8 °F 37.4 °F 81% 29.25 in 10.0 mi West 17.3 mph 24.2 mph N/A   Overcast
2:55 AM 42.8 °F 34.8 °F 37.4 °F 81% 29.27 in 10.0 mi West 17.3 mph 21.9 mph N/A   Overcast
3:15 AM 41.0 °F 32.5 °F 37.4 °F 87% 29.28 in 10.0 mi West 17.3 mph 23.0 mph N/A   Overcast
3:35 AM 42.8 °F 35.1 °F 37.4 °F 81% 29.28 in 10.0 mi West 16.1 mph 20.7 mph N/A   Overcast
3:55 AM 42.8 °F 35.8 °F 37.4 °F 81% 29.28 in 10.0 mi West 13.8 mph 20.7 mph N/A   Overcast
4:15 AM 42.8 °F 34.3 °F 37.4 °F 81% 29.27 in 10.0 mi West 19.6 mph - N/A   Overcast
4:35 AM 42.8 °F 33.5 °F 37.4 °F 81% 29.27 in 10.0 mi WNW 23.0 mph 26.5 mph N/A   Overcast
4:55 AM 41.0 °F 32.5 °F 37.4 °F 87% 29.27 in 10.0 mi WNW 17.3 mph 24.2 mph N/A   Overcast
5:15 AM 41.0 °F 32.5 °F 37.4 °F 87% 29.26 in 10.0 mi WNW 17.3 mph 26.5 mph N/A   Overcast
5:35 AM 41.0 °F 32.2 °F 37.4 °F 87% 29.25 in 10.0 mi WNW 18.4 mph 27.6 mph N/A   Overcast
5:55 AM 41.0 °F 32.2 °F 37.4 °F 87% 29.26 in 10.0 mi WNW 18.4 mph 26.5 mph N/A   Overcast
6:15 AM 39.2 °F 29.3 °F 37.4 °F 93% 29.27 in 10.0 mi WNW 20.7 mph 26.5 mph N/A   Overcast
6:35 AM 39.2 °F 30.2 °F 37.4 °F 93% 29.28 in 10.0 mi WNW 17.3 mph 25.3 mph N/A   Overcast
6:55 AM 39.2 °F 31.2 °F 37.4 °F 93% 29.28 in 10.0 mi WNW 13.8 mph - N/A   Overcast
7:15 AM 39.2 °F 31.2 °F 37.4 °F 93% 29.28 in 6.0 mi WNW 13.8 mph 19.6 mph N/A   Overcast
7:35 AM 41.0 °F 31.1 °F 37.4 °F 87% 29.29 in 10.0 mi WNW 23.0 mph 27.6 mph N/A   Overcast
7:55 AM 41.0 °F 31.9 °F 37.4 °F 87% 29.28 in 10.0 mi WNW 19.6 mph - N/A   Overcast
8:15 AM 41.0 °F 31.4 °F 37.4 °F 87% 29.28 in 10.0 mi WNW 21.9 mph - N/A   Overcast
8:35 AM 41.0 °F 32.2 °F 37.4 °F 87% 29.29 in 10.0 mi WNW 18.4 mph 25.3 mph N/A   Overcast
8:55 AM 41.0 °F 31.9 °F 37.4 °F 87% 29.29 in 7.0 mi NW 19.6 mph 28.8 mph N/A   Overcast
9:15 AM 41.0 °F 31.6 °F 37.4 °F 87% 29.30 in 4.0 mi NW 20.7 mph 27.6 mph N/A   Overcast
9:35 AM 41.0 °F 31.9 °F 39.2 °F 93% 29.30 in 3.0 mi NW 19.6 mph 25.3 mph N/A   Overcast
9:55 AM 41.0 °F 30.9 °F 39.2 °F 93% 29.30 in 3.0 mi NW 24.2 mph 28.8 mph N/A   Overcast
10:15 AM 41.0 °F 32.2 °F 37.4 °F 87% 29.30 in 3.0 mi NW 18.4 mph 32.2 mph N/A   Overcast
10:35 AM 41.0 °F 30.5 °F 37.4 °F 87% 29.31 in 5.0 mi NW 26.5 mph 31.1 mph N/A   Overcast
10:55 AM 41.0 °F 31.1 °F 37.4 °F 87% 29.31 in 9.0 mi NW 23.0 mph 27.6 mph N/A   Overcast
11:15 AM 42.8 °F 34.0 °F 37.4 °F 81% 29.30 in 10.0 mi NW 20.7 mph 31.1 mph N/A   Overcast
11:35 AM 42.8 °F 33.8 °F 37.4 °F 81% 29.31 in 10.0 mi NW 21.9 mph 28.8 mph N/A   Overcast
11:55 AM 42.8 °F 33.1 °F 37.4 °F 81% 29.31 in 10.0 mi NW 25.3 mph 31.1 mph N/A   Overcast
12:15 PM 42.8 °F 33.5 °F 37.4 °F 81% 29.32 in 10.0 mi NW 23.0 mph 29.9 mph N/A   Overcast
12:35 PM 42.8 °F 33.8 °F 39.2 °F 87% 29.33 in 5.0 mi NW 21.9 mph 28.8 mph N/A   Overcast
12:55 PM 42.8 °F 33.5 °F 39.2 °F 87% 29.33 in 5.0 mi NW 23.0 mph 27.6 mph N/A   Overcast
1:15 PM 42.8 °F 33.8 °F 39.2 °F 87% 29.33 in 3.0 mi NW 21.9 mph 28.8 mph N/A   Overcast
1:35 PM 42.8 °F 33.8 °F 39.2 °F 87% 29.33 in 2.5 mi NW 21.9 mph - N/A   Overcast
1:55 PM 42.8 °F 33.8 °F 39.2 °F 87% 29.33 in 2.5 mi NW 21.9 mph 26.5 mph N/A   Overcast
2:15 PM 42.8 °F 33.8 °F 39.2 °F 87% 29.33 in 4.0 mi NW 21.9 mph 26.5 mph N/A   Overcast
2:35 PM 42.8 °F 34.0 °F 39.2 °F 87% 29.34 in 4.0 mi NW 20.7 mph 27.6 mph N/A   Overcast
2:55 PM 42.8 °F 33.5 °F 39.2 °F 87% 29.35 in 5.0 mi NW 23.0 mph 29.9 mph N/A   Overcast
3:15 PM 42.8 °F 33.5 °F 39.2 °F 87% 29.35 in 10.0 mi NW 23.0 mph 32.2 mph N/A   Overcast
3:35 PM 42.8 °F 34.5 °F 39.2 °F 87% 29.36 in 10.0 mi NNW 18.4 mph 31.1 mph N/A   Overcast
3:55 PM 44.6 °F 35.3 °F 39.2 °F 81% 29.37 in 10.0 mi NNW 26.5 mph 35.7 mph N/A   Overcast
4:15 PM 42.8 °F 33.1 °F 39.2 °F 87% 29.37 in 3.0 mi NNW 25.3 mph 34.5 mph N/A   Overcast
4:35 PM 42.8 °F 32.5 °F 39.2 °F 87% 29.38 in 5.0 mi NNW 28.8 mph 41.4 mph N/A   Overcast
4:55 PM 42.8 °F 32.9 °F 39.2 °F 87% 29.38 in 5.0 mi NNW 26.5 mph 36.8 mph N/A   Overcast
5:15 PM 42.8 °F 33.3 °F 37.4 °F 81% 29.39 in 10.0 mi NNW 24.2 mph 35.7 mph N/A   Overcast
5:35 PM 42.8 °F 32.3 °F 37.4 °F 81% 29.40 in 10.0 mi NNW 29.9 mph 42.6 mph N/A   Overcast
5:55 PM 42.8 °F 33.1 °F 37.4 °F 81% 29.41 in 10.0 mi NNW 25.3 mph 42.6 mph N/A   Overcast
6:15 PM 42.8 °F 31.8 °F 37.4 °F 81% 29.42 in 10.0 mi NNW 33.4 mph 41.4 mph N/A   Overcast
6:35 PM 42.8 °F 31.8 °F 35.6 °F 76% 29.43 in 10.0 mi NNW 33.4 mph 42.6 mph N/A   Overcast
6:55 PM 42.8 °F 31.6 °F 35.6 °F 76% 29.44 in 10.0 mi NNW 34.5 mph 50.6 mph N/A   Overcast
7:15 PM 42.8 °F 31.6 °F 35.6 °F 76% 29.46 in 10.0 mi NNW 34.5 mph 46.0 mph N/A   Overcast
7:35 PM 42.8 °F 31.9 °F 35.6 °F 76% 29.46 in 10.0 mi NNW 32.2 mph 41.4 mph N/A   Overcast
7:55 PM 42.8 °F 31.6 °F 35.6 °F 76% 29.47 in 10.0 mi NW 34.5 mph 44.9 mph N/A   Overcast
8:15 PM 41.0 °F 30.0 °F 35.6 °F 81% 29.48 in 10.0 mi NW 28.8 mph 38.0 mph N/A   Overcast
8:35 PM 41.0 °F 29.7 °F 33.8 °F 76% 29.50 in 10.0 mi NW 31.1 mph 40.3 mph N/A   Overcast
8:55 PM 39.2 °F 27.4 °F 33.8 °F 81% 29.51 in 10.0 mi NW 29.9 mph 41.4 mph N/A   Overcast
9:15 PM 41.0 °F 30.5 °F 33.8 °F 76% 29.53 in 10.0 mi NW 26.5 mph 39.1 mph N/A   Overcast
9:35 PM 39.2 °F 27.2 °F 33.8 °F 81% 29.53 in 10.0 mi NW 31.1 mph 41.4 mph N/A   Overcast
9:55 PM 39.2 °F 28.3 °F 33.8 °F 81% 29.54 in 10.0 mi NW 25.3 mph 40.3 mph N/A   Overcast
10:15 PM 39.2 °F 27.6 °F 33.8 °F 81% 29.55 in 10.0 mi NW 28.8 mph 38.0 mph N/A   Overcast
10:35 PM 37.4 °F 25.4 °F 33.8 °F 87% 29.56 in 10.0 mi NW 27.6 mph 36.8 mph N/A   Overcast
10:55 PM 37.4 °F 25.2 °F 35.6 °F 93% 29.57 in 10.0 mi NW 28.8 mph 38.0 mph N/A   Overcast
11:15 PM 37.4 °F 25.2 °F 33.8 °F 87% 29.56 in 10.0 mi NW 28.8 mph 35.7 mph 0.03 in   Overcast
11:35 PM 35.6 °F 24.0 °F 33.8 °F 93% 29.56 in 9.0 mi NW 23.0 mph 34.5 mph 0.06 in   Overcast
11:55 PM 37.4 °F 24.8 °F 33.8 °F 87% 29.56 in 10.0 mi NW 31.1 mph 38.0 mph 0.07 in   Mostly Cloudy